Time,TemperatureF,DewpointF,PressureIn,WindDirection,WindDirectionDegrees,WindSpeedMPH,WindSpeedGustMPH,Humidity,HourlyPrecipIn,Conditions,Clouds,dailyrainin,SoftwareType,DateUTC
2013-06-15 00:05:00,80.5,74.0,30.71,South,171,3.0,-999.0,81,-99.99,,,0.00,weatherlink.com 1.10,2013-06-15 05:05:00,
2013-06-15 00:20:00,80.2,74.0,30.71,South,172,3.0,-999.0,82,-99.99,,,0.00,weatherlink.com 1.10,2013-06-15 05:20:00,
2013-06-15 00:36:00,79.8,74.0,30.71,South,176,3.0,-999.0,83,-99.99,,,0.00,weatherlink.com 1.10,2013-06-15 05:36:00,
2013-06-15 00:51:00,79.4,74.0,30.71,South,175,2.0,-999.0,84,-99.99,,,0.00,weatherlink.com 1.10,2013-06-15 05:51:00,
2013-06-15 01:05:00,79.1,74.0,30.70,South,171,1.0,-999.0,84,-99.99,,,0.00,weatherlink.com 1.10,2013-06-15 06:05:00,
2013-06-15 01:21:00,78.8,74.0,30.70,South,171,3.0,-999.0,85,-99.99,,,0.00,weatherlink.com 1.10,2013-06-15 06:21:00,
2013-06-15 01:36:00,78.5,74.0,30.69,South,172,1.0,-999.0,86,-99.99,,,0.00,weatherlink.com 1.10,2013-06-15 06:36:00,
2013-06-15 01:51:00,78.2,74.0,30.69,South,172,0.0,-999.0,86,-99.99,,,0.00,weatherlink.com 1.10,2013-06-15 06:51:00,
2013-06-15 02:06:00,78.1,74.0,30.67,South,171,2.0,-999.0,86,-99.99,,,0.00,weatherlink.com 1.10,2013-06-15 07:06:00,
2013-06-15 02:21:00,78.1,74.0,30.67,South,171,0.0,-999.0,87,-99.99,,,0.00,weatherlink.com 1.10,2013-06-15 07:21:00,
2013-06-15 02:36:00,77.9,74.0,30.66,South,175,1.0,-999.0,87,-99.99,,,0.00,weatherlink.com 1.10,2013-06-15 07:36:00,
2013-06-15 02:51:00,77.8,74.0,30.66,South,176,2.0,-999.0,87,-99.99,,,0.00,weatherlink.com 1.10,2013-06-15 07:51:00,
2013-06-15 03:06:00,77.6,74.0,30.66,South,177,1.0,-999.0,88,-99.99,,,0.00,weatherlink.com 1.10,2013-06-15 08:06:00,
2013-06-15 03:21:00,77.6,74.0,30.65,South,179,2.0,-999.0,88,-99.99,,,0.00,weatherlink.com 1.10,2013-06-15 08:21:00,
2013-06-15 03:36:00,77.7,74.0,30.66,South,178,0.0,-999.0,88,-99.99,,,0.00,weatherlink.com 1.10,2013-06-15 08:36:00,
2013-06-15 03:51:00,77.6,74.0,30.65,South,178,2.0,-999.0,88,-99.99,,,0.00,weatherlink.com 1.10,2013-06-15 08:51:00,
2013-06-15 04:06:00,77.3,74.0,30.65,South,178,0.0,-999.0,89,-99.99,,,0.00,weatherlink.com 1.10,2013-06-15 09:06:00,
2013-06-15 04:21:00,77.0,74.0,30.66,South,178,0.0,-999.0,89,-99.99,,,0.00,weatherlink.com 1.10,2013-06-15 09:21:00,
2013-06-15 04:36:00,76.6,74.0,30.66,South,178,0.0,-999.0,90,-99.99,,,0.00,weatherlink.com 1.10,2013-06-15 09:36:00,
2013-06-15 04:51:00,76.5,74.0,30.67,ESE,122,2.0,-999.0,90,-99.99,,,0.00,weatherlink.com 1.10,2013-06-15 09:51:00,
2013-06-15 05:06:00,76.4,73.0,30.67,East,79,2.0,-999.0,90,-99.99,,,0.00,weatherlink.com 1.10,2013-06-15 10:06:00,
2013-06-15 05:21:00,76.4,74.0,30.68,East,84,0.0,-999.0,91,-99.99,,,0.00,weatherlink.com 1.10,2013-06-15 10:21:00,
2013-06-15 05:36:00,76.4,74.0,30.69,East,83,1.0,-999.0,91,-99.99,,,0.00,weatherlink.com 1.10,2013-06-15 10:36:00,
2013-06-15 05:51:00,76.3,74.0,30.69,East,83,0.0,-999.0,91,-99.99,,,0.00,weatherlink.com 1.10,2013-06-15 10:51:00,
2013-06-15 06:06:00,76.2,74.0,30.69,East,83,0.0,-999.0,91,-99.99,,,0.00,weatherlink.com 1.10,2013-06-15 11:06:00,
2013-06-15 06:21:00,76.4,74.0,30.69,East,83,0.0,-999.0,91,-99.99,,,0.00,weatherlink.com 1.10,2013-06-15 11:21:00,
2013-06-15 06:36:00,76.4,74.0,30.70,East,84,0.0,-999.0,91,-99.99,,,0.00,weatherlink.com 1.10,2013-06-15 11:36:00,
2013-06-15 06:51:00,76.5,74.0,30.70,East,84,0.0,-999.0,92,-99.99,,,0.00,weatherlink.com 1.10,2013-06-15 11:51:00,
2013-06-15 07:06:00,76.6,74.0,30.71,East,80,2.0,-999.0,91,-99.99,,,0.00,weatherlink.com 1.10,2013-06-15 12:06:00,
2013-06-15 07:21:00,76.9,75.0,30.71,East,81,2.0,-999.0,92,-99.99,,,0.00,weatherlink.com 1.10,2013-06-15 12:21:00,
2013-06-15 07:36:00,77.2,75.0,30.72,East,81,0.0,-999.0,92,-99.99,,,0.00,weatherlink.com 1.10,2013-06-15 12:36:00,
2013-06-15 07:51:00,77.6,75.0,30.73,East,80,0.0,-999.0,91,-99.99,,,0.00,weatherlink.com 1.10,2013-06-15 12:51:00,
2013-06-15 08:06:00,78.0,75.0,30.73,East,82,1.0,-999.0,91,-99.99,,,0.00,weatherlink.com 1.10,2013-06-15 13:06:00,
2013-06-15 08:21:00,78.7,76.0,30.74,SSE,157,0.0,-999.0,91,-99.99,,,0.00,weatherlink.com 1.10,2013-06-15 13:21:00,
2013-06-15 08:36:00,79.3,77.0,30.74,South,171,0.0,-999.0,91,-99.99,,,0.00,weatherlink.com 1.10,2013-06-15 13:36:00,
2013-06-15 08:51:00,79.7,77.0,30.75,South,178,3.0,-999.0,90,-99.99,,,0.00,weatherlink.com 1.10,2013-06-15 13:51:00,
2013-06-15 09:06:00,80.3,77.0,30.75,South,169,3.0,-999.0,89,-99.99,,,0.00,weatherlink.com 1.10,2013-06-15 14:06:00,
2013-06-15 09:21:00,80.8,77.0,30.75,SSE,167,3.0,-999.0,88,-99.99,,,0.00,weatherlink.com 1.10,2013-06-15 14:21:00,
2013-06-15 09:36:00,81.1,77.0,30.75,SSE,155,3.0,-999.0,87,-99.99,,,0.00,weatherlink.com 1.10,2013-06-15 14:36:00,
2013-06-15 09:51:00,81.3,77.0,30.74,South,177,3.0,-999.0,87,-99.99,,,0.00,weatherlink.com 1.10,2013-06-15 14:51:00,
2013-06-15 10:06:00,81.9,77.0,30.74,SSE,153,4.0,-999.0,86,-99.99,,,0.00,weatherlink.com 1.10,2013-06-15 15:06:00,
2013-06-15 10:21:00,82.1,77.0,30.74,SSE,163,3.0,-999.0,84,-99.99,,,0.00,weatherlink.com 1.10,2013-06-15 15:21:00,
2013-06-15 10:36:00,81.9,77.0,30.74,South,169,3.0,-999.0,84,-99.99,,,0.00,weatherlink.com 1.10,2013-06-15 15:36:00,
2013-06-15 10:51:00,81.9,77.0,30.74,SSE,158,4.0,-999.0,84,-99.99,,,0.00,weatherlink.com 1.10,2013-06-15 15:51:00,
2013-06-15 11:06:00,82.2,77.0,30.74,South,175,2.0,-999.0,85,-99.99,,,0.00,weatherlink.com 1.10,2013-06-15 16:06:00,
2013-06-15 11:21:00,83.3,78.0,30.75,SSE,156,0.0,-999.0,84,-99.99,,,0.00,weatherlink.com 1.10,2013-06-15 16:21:00,
2013-06-15 11:36:00,83.3,76.0,30.74,South,174,2.0,-999.0,78,-99.99,,,0.00,weatherlink.com 1.10,2013-06-15 16:36:00,
2013-06-15 11:51:00,83.2,76.0,30.75,SSE,166,4.0,-999.0,79,-99.99,,,0.00,weatherlink.com 1.10,2013-06-15 16:51:00,
2013-06-15 12:06:00,83.4,77.0,30.75,South,172,3.0,-999.0,80,-99.99,,,0.00,weatherlink.com 1.10,2013-06-15 17:06:00,
2013-06-15 12:21:00,84.2,77.0,30.74,South,183,3.0,-999.0,80,-99.99,,,0.00,weatherlink.com 1.10,2013-06-15 17:21:00,
2013-06-15 12:36:00,84.3,76.0,30.74,SSE,152,4.0,-999.0,77,-99.99,,,0.00,weatherlink.com 1.10,2013-06-15 17:36:00,
2013-06-15 12:51:00,85.0,77.0,30.74,South,179,4.0,-999.0,78,-99.99,,,0.00,weatherlink.com 1.10,2013-06-15 17:51:00,
2013-06-15 13:06:00,86.0,77.0,30.73,SSE,148,2.0,-999.0,75,-99.99,,,0.00,weatherlink.com 1.10,2013-06-15 18:06:00,
2013-06-15 13:21:00,86.6,76.0,30.73,SSE,153,3.0,-999.0,71,-99.99,,,0.00,weatherlink.com 1.10,2013-06-15 18:21:00,
2013-06-15 13:36:00,86.3,76.0,30.73,South,172,6.0,-999.0,71,-99.99,,,0.00,weatherlink.com 1.10,2013-06-15 18:36:00,
2013-06-15 13:51:00,86.2,75.0,30.72,SSE,153,5.0,-999.0,70,-99.99,,,0.00,weatherlink.com 1.10,2013-06-15 18:51:00,
2013-06-15 14:06:00,86.3,75.0,30.71,SSE,167,4.0,-999.0,70,-99.99,,,0.00,weatherlink.com 1.10,2013-06-15 19:06:00,
2013-06-15 14:21:00,87.5,76.0,30.72,SSE,162,2.0,-999.0,69,-99.99,,,0.00,weatherlink.com 1.10,2013-06-15 19:21:00,
2013-06-15 14:36:00,87.6,77.0,30.71,South,178,2.0,-999.0,70,-99.99,,,0.00,weatherlink.com 1.10,2013-06-15 19:36:00,
2013-06-15 14:51:00,89.2,77.0,30.70,ESE,112,2.0,-999.0,67,-99.99,,,0.00,weatherlink.com 1.10,2013-06-15 19:51:00,
2013-06-15 15:06:00,89.3,77.0,30.70,SSE,167,2.0,-999.0,66,-99.99,,,0.00,weatherlink.com 1.10,2013-06-15 20:06:00,
2013-06-15 15:22:00,90.3,76.0,30.70,East,99,2.0,-999.0,63,-99.99,,,0.00,weatherlink.com 1.10,2013-06-15 20:22:00,
2013-06-15 15:37:00,90.7,75.0,30.68,SSE,148,3.0,-999.0,61,-99.99,,,0.00,weatherlink.com 1.10,2013-06-15 20:37:00,
2013-06-15 15:52:00,91.1,75.0,30.68,SSE,161,8.0,-999.0,59,-99.99,,,0.00,weatherlink.com 1.10,2013-06-15 20:52:00,
2013-06-15 16:06:00,91.4,73.0,30.67,South,184,8.0,-999.0,55,-99.99,,,0.00,weatherlink.com 1.10,2013-06-15 21:06:00,
2013-06-15 16:21:00,91.6,72.0,30.67,SSE,162,8.0,-999.0,52,-99.99,,,0.00,weatherlink.com 1.10,2013-06-15 21:21:00,
2013-06-15 16:36:00,91.5,72.0,30.67,South,184,7.0,-999.0,53,-99.99,,,0.00,weatherlink.com 1.10,2013-06-15 21:36:00,
2013-06-15 16:51:00,91.6,72.0,30.67,East,81,3.0,-999.0,52,-99.99,,,0.00,weatherlink.com 1.10,2013-06-15 21:51:00,
2013-06-15 17:06:00,91.8,73.0,30.66,SE,140,4.0,-999.0,55,-99.99,,,0.00,weatherlink.com 1.10,2013-06-15 22:06:00,
2013-06-15 17:21:00,91.7,73.0,30.65,South,188,6.0,-999.0,55,-99.99,,,0.00,weatherlink.com 1.10,2013-06-15 22:21:00,
2013-06-15 17:36:00,91.5,74.0,30.65,SSE,164,7.0,-999.0,57,-99.99,,,0.00,weatherlink.com 1.10,2013-06-15 22:36:00,
2013-06-15 17:51:00,91.7,74.0,30.64,SE,145,3.0,-999.0,56,-99.99,,,0.00,weatherlink.com 1.10,2013-06-15 22:51:00,
2013-06-15 18:06:00,91.3,72.0,30.64,South,182,4.0,-999.0,54,-99.99,,,0.00,weatherlink.com 1.10,2013-06-15 23:06:00,
2013-06-15 18:21:00,90.0,72.0,30.64,SSE,166,4.0,-999.0,55,-99.99,,,0.00,weatherlink.com 1.10,2013-06-15 23:21:00,
2013-06-15 18:36:00,89.3,72.0,30.63,South,176,2.0,-999.0,57,-99.99,,,0.00,weatherlink.com 1.10,2013-06-15 23:36:00,
2013-06-15 18:51:00,88.6,73.0,30.64,SSE,168,3.0,-999.0,61,-99.99,,,0.00,weatherlink.com 1.10,2013-06-15 23:51:00,
2013-06-15 19:06:00,87.7,74.0,30.65,South,185,3.0,-999.0,63,-99.99,,,0.00,weatherlink.com 1.10,2013-06-16 00:06:00,
2013-06-15 19:21:00,87.0,74.0,30.65,SSW,194,0.0,-999.0,65,-99.99,,,0.00,weatherlink.com 1.10,2013-06-16 00:21:00,
2013-06-15 19:36:00,87.1,74.0,30.65,SSW,194,0.0,-999.0,65,-99.99,,,0.00,weatherlink.com 1.10,2013-06-16 00:36:00,
2013-06-15 19:51:00,86.7,74.0,30.66,South,185,0.0,-999.0,66,-99.99,,,0.00,weatherlink.com 1.10,2013-06-16 00:51:00,
2013-06-15 20:06:00,86.1,73.0,30.66,South,182,0.0,-999.0,66,-99.99,,,0.00,weatherlink.com 1.10,2013-06-16 01:06:00,
2013-06-15 20:21:00,85.3,74.0,30.66,South,178,0.0,-999.0,68,-99.99,,,0.00,weatherlink.com 1.10,2013-06-16 01:21:00,
2013-06-15 20:36:00,84.6,74.0,30.66,South,178,0.0,-999.0,70,-99.99,,,0.00,weatherlink.com 1.10,2013-06-16 01:36:00,
2013-06-15 20:51:00,83.0,73.0,30.66,South,175,0.0,-999.0,72,-99.99,,,0.00,weatherlink.com 1.10,2013-06-16 01:51:00,
2013-06-15 21:06:00,81.8,73.0,30.66,South,175,0.0,-999.0,74,-99.99,,,0.00,weatherlink.com 1.10,2013-06-16 02:06:00,
2013-06-15 21:21:00,81.2,73.0,30.66,South,175,0.0,-999.0,76,-99.99,,,0.00,weatherlink.com 1.10,2013-06-16 02:21:00,
2013-06-15 21:37:00,80.8,73.0,30.66,South,175,0.0,-999.0,76,-99.99,,,0.00,weatherlink.com 1.10,2013-06-16 02:37:00,
2013-06-15 21:52:00,79.9,73.0,30.67,South,174,0.0,-999.0,78,-99.99,,,0.00,weatherlink.com 1.10,2013-06-16 02:52:00,
2013-06-15 22:07:00,80.8,73.0,30.68,SSE,167,3.0,-999.0,76,-99.99,,,0.00,weatherlink.com 1.10,2013-06-16 03:07:00,
2013-06-15 22:22:00,81.1,73.0,30.68,South,169,2.0,-999.0,76,-99.99,,,0.00,weatherlink.com 1.10,2013-06-16 03:22:00,
2013-06-15 22:37:00,80.8,73.0,30.69,South,169,2.0,-999.0,77,-99.99,,,0.00,weatherlink.com 1.10,2013-06-16 03:37:00,
2013-06-15 22:52:00,80.0,73.0,30.70,SSE,163,2.0,-999.0,80,-99.99,,,0.00,weatherlink.com 1.10,2013-06-16 03:52:00,
2013-06-15 23:07:00,80.1,73.0,30.71,SSE,155,3.0,-999.0,80,-99.99,,,0.00,weatherlink.com 1.10,2013-06-16 04:07:00,
2013-06-15 23:22:00,79.9,73.0,30.71,SSE,159,4.0,-999.0,80,-99.99,,,0.00,weatherlink.com 1.10,2013-06-16 04:22:00,
2013-06-15 23:36:00,79.9,73.0,30.71,South,183,4.0,-999.0,80,-99.99,,,0.00,weatherlink.com 1.10,2013-06-16 04:36:00,
2013-06-15 23:52:00,79.4,74.0,30.71,South,173,3.0,-999.0,82,-99.99,,,0.00,weatherlink.com 1.10,2013-06-16 04:52:00,